Portsmouth, NH

2:49 PM EDT on March 28, 2017 (GMT -0400)
Pease International Tradeport

Weather History for KPSM - June, 2013

Change the Weather History Date:

Thursday, June 27, 2013

  Actual Average Record
Temperature  
Mean Temperature 62 °F -  
Max Temperature 68 °F 77 °F 96 °F (2007)
Min Temperature 57 °F 59 °F 46 °F (1975)
Degree Days  
Heating Degree Days 2    
Growing Degree Days 12 (Base 50)    
Moisture  
Dew Point 60 °F    
Average Humidity 96    
Maximum Humidity 100    
Minimum Humidity 82    
Precipitation  
Precipitation 0.36 in - - ()
Sea Level Pressure  
Sea Level Pressure 29.83 in    
Wind  
Wind Speed 6 mph (ENE)    
Max Wind Speed 12 mph    
Max Gust Speed -    
Visibility 4 miles    
Events Rain    
Averages and records for this station are not official NWS values.
T = Trace of Precipitation, MM = Missing Value Source: NWS Daily Summary

Daily Weather History Graph

Daily Weather History Graph

Search for Another Location

Airport or City:

Trip Planner

Search our weather history database for the weather conditions in past years. The results will help you decide how hot, cold, wet, or windy it might be!

Date:

Astronomy

Jun. 27, 2013 Rise Set
Actual Time 5:05 AM EDT 8:26 PM EDT
Civil Twilight 4:30 AM EDT 9:02 PM EDT
Nautical Twilight 3:44 AM EDT 9:48 PM EDT
Astronomical Twilight 2:47 AM EDT 10:45 PM EDT
Moon 11:13 PM EDT (6/27) 10:11 AM EDT (6/27)
Length of Visible Light 16h 31m
Length of Day
15h 20m
Waning Gibbous, 76% of the Moon is Illuminated
Jun 27
Waning Gibbous
Jun 30
Last Quarter
Jul 8
New
Jul 15
First Quarter
Jul 22
Full

Hourly Weather History & Observations

Time (EDT) Temp. Dew Point Humidity Pressure Visibility Wind Dir Wind Speed Gust Speed Precip Events Conditions
12:55 AM 59.7 °F 59.4 °F 99% 29.87 in 1.2 mi North 6.9 mph - N/A   Overcast
1:58 AM 58.8 °F 58.5 °F 99% 29.88 in 1.2 mi NE 5.8 mph - N/A   Overcast
2:58 AM 58.3 °F 57.9 °F 99% 29.86 in 1.2 mi NE 6.9 mph - N/A   Overcast
3:58 AM 58.1 °F 57.7 °F 99% 29.85 in 1.2 mi NNE 3.5 mph - N/A   Overcast
4:28 AM 59.0 °F 57.2 °F 94% 29.84 in 1.0 mi NE 4.6 mph - N/A   Overcast
4:58 AM 58.1 °F 57.7 °F 99% 29.86 in 1.0 mi ENE 4.6 mph - N/A   Overcast
5:58 AM 57.9 °F 57.6 °F 99% 29.87 in 1.0 mi East 3.5 mph - N/A   Overcast
6:58 AM 58.6 °F 58.3 °F 99% 29.87 in 1.5 mi NNE 3.5 mph - N/A   Overcast
7:58 AM 59.2 °F 58.8 °F 99% 29.88 in 1.0 mi SE 3.5 mph - N/A   Overcast
8:28 AM 59.0 °F 59.0 °F 100% 29.86 in 2.0 mi ENE 5.8 mph - N/A   Overcast
8:58 AM 59.7 °F 59.5 °F 99% 29.87 in 2.0 mi ENE 2.3 mph - N/A   Overcast
9:28 AM 60.8 °F 60.8 °F 100% 29.86 in 3.0 mi Variable 3.5 mph - N/A   Overcast
9:58 AM 62.1 °F 60.6 °F 95% 29.87 in 7.0 mi East 1.2 mph - N/A   Overcast
10:58 AM 64.2 °F 61.3 °F 90% 29.86 in 10.0 mi Variable 3.5 mph - N/A   Overcast
11:58 AM 64.2 °F 61.7 °F 91% 29.86 in 10.0 mi ESE 4.6 mph - N/A   Overcast
12:58 PM 64.9 °F 61.5 °F 89% 29.86 in 10.0 mi East 4.6 mph - N/A   Overcast
1:28 PM 68.0 °F 62.6 °F 83% 29.82 in 10.0 mi East 4.6 mph - N/A   Overcast
1:58 PM 68.7 °F 63.0 °F 82% 29.84 in 10.0 mi East 6.9 mph - N/A   Overcast
2:58 PM 66.4 °F 61.3 °F 84% 29.84 in 10.0 mi ESE 6.9 mph - N/A   Overcast
3:58 PM 65.1 °F 60.4 °F 85% 29.83 in 10.0 mi East 5.8 mph - N/A   Overcast
4:12 PM 64.4 °F 60.8 °F 88% 29.81 in 10.0 mi East 5.8 mph - N/A Rain Light Rain
4:58 PM 62.8 °F 60.8 °F 93% 29.82 in 10.0 mi ESE 9.2 mph - 0.00 in   Overcast
5:19 PM 60.8 °F 60.8 °F 100% 29.80 in 10.0 mi East 10.4 mph - N/A   Overcast
5:58 PM 61.2 °F 60.6 °F 98% 29.81 in 4.0 mi East 6.9 mph - N/A   Overcast
6:46 PM 60.8 °F 60.8 °F 100% 29.80 in 2.0 mi East 6.9 mph - N/A Rain Light Rain
6:58 PM 61.2 °F 60.8 °F 99% 29.81 in 1.2 mi East 4.6 mph - 0.01 in Rain Light Rain
7:13 PM 60.8 °F 60.8 °F 100% 29.80 in 0.8 mi ENE 6.9 mph - N/A Rain Rain
7:20 PM 60.8 °F 60.8 °F 100% 29.80 in 0.8 mi ENE 4.6 mph - N/A Rain Rain
7:58 PM 61.2 °F 60.8 °F 99% 29.81 in 1.5 mi ENE 4.6 mph - 0.30 in Rain Light Rain
8:28 PM 60.8 °F 60.8 °F 100% 29.80 in 2.0 mi NNE 5.8 mph - N/A Rain Light Rain
8:43 PM 60.8 °F 60.8 °F 100% 29.81 in 3.0 mi ENE 4.6 mph - N/A Rain Light Rain
8:58 PM 61.3 °F 61.0 °F 99% 29.82 in 3.0 mi NE 5.8 mph - 0.04 in Rain Light Rain
9:31 PM 60.8 °F 60.8 °F 100% 29.81 in 3.0 mi NE 10.4 mph - N/A   Overcast
9:58 PM 60.8 °F 60.4 °F 99% 29.83 in 2.0 mi NNE 8.1 mph - 0.00 in   Overcast
10:58 PM 59.4 °F 59.0 °F 99% 29.81 in 1.5 mi NE 10.4 mph - N/A   Overcast
11:36 PM 59.0 °F 57.2 °F 94% 29.79 in 1.2 mi NNE 11.5 mph - N/A Rain Light Rain
11:58 PM 57.9 °F 57.6 °F 99% 29.80 in 1.2 mi NE 6.9 mph - 0.01 in Rain Light Rain